EW8665 Weather Reports


time (UTC)temp
C
wind
direction
speed
KPH
gust
KPH
rain 1hr
cm
rain 24hr
cm
rain mn
cm
humidity
%
barometer
mb
20260506201505 10 228 4.8 17.7 0.13 1.19 1.19 93 1010.4
20260506201004 10 235 4.8 11.3 0.13 1.19 1.19 92 1010.2
20260506200507 10 233 6.4 16.1 0.13 1.17 1.17 92 1010.2
20260506200005 10 231 8.0 16.1 0.13 1.17 1.17 92 1010.2
20260506195507 10 224 8.0 14.5 0.13 1.17 1.17 92 1010.2
20260506195005 10 231 6.4 12.9 0.10 1.14 1.14 92 1010.0
20260506194505 10 231 4.8 11.3 0.10 1.12 1.12 92 1010.2
20260506194005 10 230 4.8 9.7 0.13 1.12 1.12 92 1010.0
20260506193004 10 240 4.8 11.3 0.10 1.09 1.09 92 1010.1
20260506192505 10 248 4.8 11.3 0.10 1.09 1.09 92 1010.0
20260506191504 10 243 3.2 4.8 0.13 1.07 1.07 92 1009.8
20260506191005 10 248 1.6 4.8 0.13 1.07 1.07 92 1009.8
20260506190505 10 241 3.2 11.3 0.15 1.07 1.07 92 1009.7
20260506190005 10 244 3.2 11.3 0.15 1.04 1.04 92 1009.5
20260506185504 10 241 3.2 8.0 0.15 1.04 1.04 92 1009.6
20260506185005 10 240 4.8 9.7 0.15 1.04 1.04 92 1009.6
20260506184505 10 238 3.2 9.7 0.15 1.02 1.02 92 1009.4
20260506184004 10 240 3.2 6.4 0.15 0.99 0.99 91 1009.5
20260506183504 10 241 4.8 14.5 0.15 0.99 0.99 92 1009.4
20260506183005 10 234 4.8 14.5 0.18 0.99 0.99 92 1009.3
20260506182505 10 228 3.2 6.4 0.18 0.99 0.99 92 1009.2
20260506182004 10 228 3.2 8.0 0.18 0.97 0.97 92 1009.3
20260506180505 10 221 4.8 11.3 0.18 0.91 0.91 92 1009.2
20260506180005 10 219 3.2 6.4 0.18 0.91 0.89 92 1009.2
20260506175505 10 222 3.2 6.4 0.18 0.89 0.89 92 1009.1
20260506175005 10 233 4.8 8.0 0.18 0.89 0.89 92 1009.0
20260506174505 10 233 6.4 8.0 0.18 0.89 0.86 92 1008.8
20260506174004 11 231 3.2 8.0 0.18 1.02 0.84 92 1009.0
20260506173504 11 236 3.2 6.4 0.18 0.99 0.84 91 1008.7
20260506173005 10 236 4.8 8.0 0.18 0.99 0.81 91 1008.6
20260506172005 11 232 6.4 12.9 0.18 0.97 0.79 91 1008.6
20260506171504 11 236 6.4 12.9 0.18 0.94 0.76 91 1008.4
20260506171004 11 239 4.8 12.9 0.18 0.94 0.74 91 1008.3
20260506170505 11 246 3.2 12.9 0.18 0.91 0.74 91 1008.4
20260506170005 11 251 3.2 8.0 0.18 0.89 0.71 91 1008.3
20260506165504 11 254 4.8 12.9 0.18 0.89 0.71 91 1008.1
20260506165004 11 252 4.8 12.9 0.20 0.89 0.71 91 1008.2
20260506164508 11 237 6.4 11.3 0.18 0.86 0.69 90 1008.2
20260506163505 11 231 3.2 11.3 0.18 0.84 0.66 90 1008.2
20260506163004 11 227 1.6 9.7 0.18 0.81 0.64 90 1008.1
20260506162505 11 217 1.6 6.4 0.18 0.81 0.64 90 1008.0
20260506162004 11 227 4.8 11.3 0.18 0.79 0.61 89 1008.1
20260506161504 11 227 3.2 11.3 0.15 0.76 0.58 89 1008.2
20260506161005 11 215 3.2 6.4 0.13 0.74 0.56 89 1008.0
20260506155004 11 223 4.8 14.5 0.05 0.69 0.51 87 1008.1
20260506154504 11 224 4.8 14.5 0.05 0.66 0.48 87 1008.0
20260506154006 11 230 4.8 9.7 0.05 0.66 0.48 86 1008.1
20260506153505 11 230 4.8 12.9 0.05 0.66 0.46 86 1007.8
20260506153004 11 226 4.8 12.9 0.03 0.64 0.46 86 1007.9
20260506152505 11 226 4.8 11.3 0.03 0.64 0.46 86 1007.9
20260506152005 11 225 4.8 11.3 0.00 0.61 0.43 85 1007.8
20260506151504 11 247 4.8 8.0 0.03 0.61 0.43 86 1007.9
20260506151004 11 240 4.8 11.3 0.03 0.61 0.43 85 1007.7
20260506150505 11 237 4.8 11.3 0.03 0.61 0.43 85 1007.9
20260506150005 11 245 3.2 9.7 0.03 0.61 0.43 85 1007.8
20260506145505 11 246 6.4 16.1 0.05 0.61 0.43 85 1007.8
20260506144505 11 243 8.0 17.7 0.05 0.61 0.43 85 1007.9
20260506144004 11 246 8.0 14.5 0.05 0.61 0.43 85 1007.7
20260506143504 11 259 4.8 11.3 0.05 0.61 0.43 86 1007.9
20260506143004 11 244 4.8 11.3 0.05 0.61 0.43 86 1007.9
20260506142505 11 239 6.4 14.5 0.05 0.61 0.43 86 1007.7
20260506142004 11 240 8.0 17.7 0.05 0.66 0.43 86 1007.6
20260506141504 11 239 6.4 17.7 0.05 0.71 0.43 87 1007.9
20260506141005 12 241 4.8 17.7 0.05 0.74 0.43 88 1007.6
20260506135504 12 253 4.8 11.3 0.05 0.76 0.41 89 1007.6
20260506135004 12 252 6.4 16.1 0.05 0.76 0.38 89 1007.4
20260506134505 12 253 9.7 17.7 0.05 0.76 0.38 89 1007.6
20260506134004 12 249 6.4 17.7 0.05 0.74 0.38 90 1007.7
20260506133504 12 251 4.8 12.9 0.08 0.74 0.38 89 1007.5
20260506133004 11 256 6.4 16.1 0.08 0.74 0.38 89 1007.5
20260506132505 11 252 9.7 17.7 0.08 0.74 0.38 88 1007.6
20260506130504 12 246 11.3 20.9 0.15 0.74 0.36 90 1007.5
20260506130005 12 239 9.7 17.7 0.23 0.71 0.36 91 1007.3
20260506125505 12 243 11.3 20.9 0.25 0.71 0.36 91 1007.5
20260506125004 12 237 12.9 24.1 0.25 0.71 0.33 90 1007.2
20260506124504 12 232 12.9 24.1 0.25 0.71 0.33 91 1007.3
20260506124004 12 227 11.3 22.5 0.28 0.69 0.33 92 1007.3
20260506123504 12 219 9.7 22.5 0.28 0.69 0.30 92 1007.0
20260506123004 12 220 8.0 20.9 0.25 0.66 0.30 92 1006.9
20260506122005 12 215 11.3 19.3 0.25 0.66 0.28 88 1007.0
20260506121504 12 217 12.9 22.5 0.25 0.66 0.28 88 1006.9
20260506121005 12 220 11.3 22.5 0.23 0.64 0.25 88 1006.8
20260506120504 12 224 9.7 22.5 0.18 0.58 0.20 87 1006.6
20260506115008 13 234 8.0 16.1 0.08 0.46 0.08 86 1006.4
20260506114504 13 237 6.4 14.5 0.05 0.43 0.08 85 1006.6
20260506114005 13 238 8.0 14.5 0.05 0.43 0.05 84 1006.6
20260506113004 13 226 6.4 12.9 0.03 0.41 0.05 85 1006.5
20260506111505 13 236 6.4 12.9 0.00 0.41 0.03 83 1006.4
20260506111004 13 243 6.4 12.9 0.00 0.41 0.03 82 1006.3
20260506110504 13 251 6.4 12.9 0.00 0.41 0.03 83 1006.3
20260506110004 13 253 8.0 16.1 0.00 0.41 0.03 81 1006.3
20260506105504 13 254 8.0 16.1 0.00 0.41 0.00 80 1006.4
20260506105005 13 254 6.4 12.9 0.00 0.41 0.00 79 1006.5
20260506104504 13 249 6.4 12.9 0.00 0.41 0.00 79 1006.3
20260506103507 14 238 6.4 12.9 0.00 0.41 0.00 78 1006.4
20260506102504 14 248 6.4 12.9 0.00 0.41 0.00 76 1006.2
20260506101505 14 265 4.8 12.9 0.00 0.41 0.00 75 1006.2
20260506101004 14 269 4.8 11.3 0.00 0.41 0.00 75 1006.1
20260506100505 14 269 6.4 11.3 0.00 0.41 0.00 75 1006.1
20260506095505 14 263 9.7 16.1 0.00 0.41 0.00 75 1005.9
20260506094504 14 260 8.0 11.3 0.00 0.41 0.00 75 1005.9
20260506094004 14 257 6.4 12.9 0.00 0.41 0.00 75 1005.9
20260506093506 14 255 6.4 12.9 0.00 0.41 0.00 75 1005.6
20260506093004 14 249 6.4 11.3 0.00 0.41 0.00 74 1005.6
20260506092504 14 246 4.8 11.3 0.00 0.41 0.00 74 1005.7
20260506092005 14 244 8.0 17.7 0.00 0.41 0.00 74 1005.6
20260506091504 14 248 6.4 17.7 0.00 0.41 0.00 73 1005.6
20260506091004 14 251 4.8 12.9 0.00 0.41 0.00 74 1005.6
20260506090504 14 248 6.4 12.9 0.00 0.41 0.00 73 1005.6
20260506085507 14 255 6.4 16.1 0.00 0.41 0.00 73 1005.5
20260506085005 14 257 8.0 16.1 0.00 0.41 0.00 72 1005.5
20260506083504 14 226 4.8 12.9 0.00 0.41 0.00 73 1005.2
20260506083004 14 219 4.8 9.7 0.00 0.41 0.00 73 1005.4
20260506082504 14 223 4.8 8.0 0.00 0.41 0.00 74 1005.2
20260506081504 14 219 4.8 9.7 0.00 0.41 0.00 75 1005.2
20260506081005 14 221 6.4 11.3 0.00 0.41 0.00 74 1005.4
20260506080504 14 215 6.4 12.9 0.00 0.41 0.00 75 1005.3
20260506073504 13 238 6.4 12.9 0.00 0.41 0.00 76 1005.5
20260506073004 13 239 6.4 14.5 0.00 0.41 0.00 76 1005.4
20260506072504 13 222 6.4 14.5 0.00 0.41 0.00 76 1005.4
20260506072005 13 227 6.4 14.5 0.00 0.41 0.00 76 1005.3
20260506071504 13 225 4.8 8.0 0.00 0.41 0.00 76 1005.5
20260506071004 13 223 4.8 12.9 0.00 0.41 0.00 76 1005.3
20260506070504 13 225 3.2 12.9 0.00 0.41 0.00 76 1005.3
20260506062505 13 243 4.8 11.3 0.00 0.41 0.00 76 1005.6
20260506061504 13 238 6.4 12.9 0.00 0.41 0.00 77 1005.5
20260506061005 12 237 4.8 12.9 0.00 0.41 0.00 78 1005.6
20260506060504 12 237 4.8 9.7 0.00 0.41 0.00 79 1005.5
20260506051004 11 65 3.2 6.4 0.00 0.41 0.00 89 1005.6
20260506050504 11 75 3.2 6.4 0.00 0.41 0.00 89 1005.3
20260506045004 11 129 1.6 3.2 0.00 0.41 0.00 89 1005.7
20260506044004 11 146 1.6 9.7 0.00 0.41 0.00 89 1005.7
20260506043505 11 143 1.6 3.2 0.00 0.41 0.00 89 1005.8
20260506043004 11 150 1.6 4.8 0.00 0.41 0.00 89 1005.8
20260506042004 11 175 1.6 3.2 0.00 0.41 0.00 88 1005.7
20260506041506 11 201 0.0 3.2 0.00 0.41 0.00 86 1005.9
20260506041004 11 231 1.6 3.2 0.00 0.41 0.00 85 1005.7
20260506040505 11 236 1.6 4.8 0.00 0.41 0.00 85 1005.7
20260506040004 12 234 3.2 6.4 0.00 0.41 0.00 83 1005.7
20260506035504 12 239 3.2 6.4 0.00 0.41 0.00 82 1005.8
20260506035004 12 245 4.8 9.7 0.00 0.41 0.00 82 1006.1
20260506034504 12 240 6.4 12.9 0.00 0.41 0.00 82 1006.0
20260506034004 12 230 4.8 12.9 0.00 0.41 0.00 79 1006.2
20260506033504 12 232 6.4 12.9 0.00 0.41 0.00 79 1006.1
20260506033005 12 241 4.8 12.9 0.00 0.41 0.00 78 1006.1
20260506032504 12 238 4.8 12.9 0.00 0.41 0.00 79 1006.0
20260506032004 12 233 4.8 12.9 0.00 0.41 0.00 79 1006.1
20260506031504 12 230 4.8 12.9 0.00 0.41 0.00 79 1006.2
20260506031004 12 232 4.8 12.9 0.00 0.41 0.00 81 1005.9
20260506030504 12 228 4.8 11.3 0.00 0.41 0.00 83 1006.1
20260506025504 12 344 1.6 4.8 0.00 0.41 0.00 92 1006.1
20260506024504 11 23 1.6 6.4 0.00 0.41 0.00 93 1006.2
20260506024004 11 31 1.6 8.0 0.00 0.41 0.00 93 1006.4
20260506023504 11 38 3.2 8.0 0.00 0.41 0.00 93 1006.3
20260506022504 11 63 1.6 4.8 0.00 0.41 0.00 93 1006.4
20260506022005 11 72 1.6 4.8 0.00 0.41 0.00 93 1006.4
20260506021503 11 73 1.6 4.8 0.00 0.41 0.00 93 1006.5
20260506021004 11 69 1.6 4.8 0.00 0.41 0.00 94 1006.4
20260506020504 11 68 3.2 4.8 0.00 0.41 0.00 94 1006.4
20260506015005 11 70 3.2 4.8 0.00 0.41 0.00 94 1006.7
20260506014004 11 83 1.6 3.2 0.00 0.41 0.00 94 1006.7
20260506013504 11 86 3.2 4.8 0.00 0.41 0.00 93 1007.1
20260506012005 11 65 1.6 3.2 0.00 0.41 0.00 92 1007.0
20260506011504 11 62 1.6 3.2 0.00 0.41 0.00 92 1007.3
20260506011004 11 44 1.6 3.2 0.00 0.41 0.00 92 1007.3
20260506004504 11 46 3.2 6.4 0.00 0.41 0.00 92 1007.2
20260506003504 11 61 4.8 8.0 0.00 0.41 0.00 92 1007.4
20260506002504 11 38 3.2 4.8 0.00 0.41 0.00 92 1007.4
20260506002003 11 35 3.2 4.8 0.00 0.41 0.00 91 1007.5
20260506001504 11 37 3.2 8.0 0.00 0.41 0.00 91 1007.4
20260506001004 11 18 3.2 8.0 0.00 0.41 0.00 91 1007.5
20260506000504 11 10 3.2 8.0 0.00 0.41 0.00 92 1007.5
20260506000004 11 20 3.2 8.0 0.00 0.41 0.00 92 1007.7
20260505235504 11 24 3.2 8.0 0.00 0.41 0.00 93 1007.7
20260505234504 11 27 4.8 6.4 0.00 0.41 0.00 93 1007.9
20260505233004 11 49 3.2 8.0 0.00 0.41 0.00 93 1007.9
20260505232504 11 42 3.2 6.4 0.00 0.41 0.00 94 1008.1
20260505232007 11 22 1.6 6.4 0.00 0.41 0.00 94 1007.9
20260505231504 11 16 1.6 3.2 0.00 0.41 0.00 94 1008.0
20260505231004 11 11 1.6 4.8 0.00 0.41 0.00 94 1008.2
20260505230504 11 11 1.6 4.8 0.00 0.41 0.00 94 1008.1
20260505225504 11 10 4.8 9.7 0.00 0.41 0.00 94 1008.3
20260505225004 11 11 4.8 9.7 0.00 0.41 0.00 94 1008.1
20260505224004 11 17 4.8 8.0 0.00 0.41 0.00 95 1008.3
20260505223503 11 19 4.8 11.3 0.00 0.41 0.00 95 1008.2
20260505223004 11 20 6.4 11.3 0.00 0.41 0.00 95 1008.2
20260505222004 11 29 4.8 9.7 0.00 0.41 0.00 96 1008.2
20260505221004 11 35 3.2 8.0 0.00 0.41 0.00 96 1008.3
20260505215504 10 59 1.6 4.8 0.00 0.41 0.41 96 1008.5
20260505215004 11 53 1.6 3.2 0.00 0.41 0.41 96 1008.5
20260505214504 11 41 1.6 3.2 0.00 0.41 0.41 96 1008.5
20260505213505 11 27 1.6 3.2 0.00 0.41 0.41 96 1008.5
20260505213004 11 26 3.2 6.4 0.00 0.41 0.41 96 1008.4
20260505212504 11 20 3.2 6.4 0.00 0.41 0.41 96 1008.5
20260505212004 11 25 3.2 8.0 0.00 0.41 0.41 96 1008.6
20260505211504 11 27 3.2 8.0 0.00 0.41 0.41 96 1008.7
20260505211003 11 35 3.2 8.0 0.00 0.41 0.41 96 1008.7
20260505210504 11 35 3.2 8.0 0.00 0.41 0.41 96 1008.5
20260505210004 11 36 3.2 6.4 0.00 0.41 0.41 96 1008.6
20260505205504 11 45 4.8 6.4 0.00 0.41 0.41 96 1008.5
20260505205004 11 40 3.2 6.4 0.00 0.41 0.41 96 1008.7
20260505204503 11 39 1.6 4.8 0.00 0.41 0.41 96 1008.9
20260505204004 11 39 1.6 3.2 0.00 0.41 0.41 96 1008.6
20260505203004 11 29 1.6 3.2 0.00 0.41 0.41 96 1008.5